Hourly Weather Roundup
Issued by NWS Central Illinois

Current Version | Previous Version | Text Only | Print | Product List | Glossary On
Versions: 1 2 3 4 5 6 7 8 9 10 11 12 13 14 15 16 17 18 19 20 21 22 23 24 25 26 27 28 29 30 31 32 33 34 35 36 37 38 39 40 41 42 43 44 45 46 47 48 49 50
000
NZUS43 KILX 281210
HWRILX

Area Weather Roundup
National Weather Service Lincoln IL
700 AM CDT WED JUN 28 2017

NOTE:  "FAIR" indicates few or no clouds below 12,000 feet, with
       no sigificant weather and/or obstructions to visibility.


CITY           SKY/WX    TMP DP  RH WIND       PRES   REMARKS
Bloomington    PTSUNNY   59  52  77 S13       30.03R
6HR MIN TEMP:  56; 6HR MAX TEMP:  60;

Champaign      CLOUDY    62  50  64 S10       30.05R
6HR MIN TEMP:  54; 6HR MAX TEMP:  62;

Danville       CLOUDY    58  51  78 SE6       30.03F
6HR MIN TEMP:  54; 6HR MAX TEMP:  58;

Decatur        CLOUDY    62  52  69 S10       30.05R
6HR MIN TEMP:  59; 6HR MAX TEMP:  63;

Effingham      MOSUNNY   61  55  80 SE5       30.08R
6HR MIN TEMP:  56; 6HR MAX TEMP:  61;

Flora          CLOUDY    61  56  84 S5        30.06F
6HR MIN TEMP:  54; 6HR MAX TEMP:  61;

Galesburg      PTSUNNY   66  58  76 S13G20    29.93R
6HR MIN TEMP:  60; 6HR MAX TEMP:  66;

Jacksonville   PTSUNNY   66  57  72 S14G21    29.97F
6HR MIN TEMP:  64; 6HR MAX TEMP:  66;

Lacon          CLOUDY    63  53  69 S8        29.97R
6HR MIN TEMP:  58; 6HR MAX TEMP:  64;

Lawrenceville  MOSUNNY   59  55  87 SE6       30.08F
6HR MIN TEMP:  55; 6HR MAX TEMP:  60;

Litchfield     CLOUDY    62  55  76 S8        30.04R
6HR MIN TEMP:  57; 6HR MAX TEMP:  62;

$$


CITY           SKY/WX    TMP DP  RH WIND       PRES   REMARKS
Lincoln        CLOUDY    63  55  75 S10       30.01R
6HR MIN TEMP:  58; 6HR MAX TEMP:  63;

Macomb         CLOUDY    66  58  76 S13       29.95S
6HR MIN TEMP:  59; 6HR MAX TEMP:  66;

Mattoon        CLOUDY    61  54  77 S9        30.04F
6HR MIN TEMP:  57; 6HR MAX TEMP:  61;

Mt Carmel AP   SUNNY     58  54  86 CALM      30.08F
6HR MIN TEMP:  53; 6HR MAX TEMP:  58;

Olney-Noble AP CLOUDY    60  59  96 SE6       30.06F
Paris AP       CLOUDY    57  54  88 SE6       30.07F
6HR MIN TEMP:  52; 6HR MAX TEMP:  57;

Peoria         CLOUDY    63  54  72 S15       29.97R
6HR MIN TEMP:  61; 6HR MAX TEMP:  65;

Pontiac        CLOUDY    62  53  71 S15       30.01R
6HR MIN TEMP:  57; 6HR MAX TEMP:  62;

Rantoul        PTSUNNY   59  53  80 S6        30.05R
6HR MIN TEMP:  53; 6HR MAX TEMP:  59;

Robinson       MOSUNNY   58  53  84 CALM      30.09F
6HR MIN TEMP:  49; 6HR MAX TEMP:  58;

Springfield    PTSUNNY   66  56  70 S13       30.01R
6HR MIN TEMP:  64; 6HR MAX TEMP:  67;

Taylorville    CLOUDY    62  53  72 S8        30.04R
6HR MIN TEMP:  58; 6HR MAX TEMP:  62;

$$

...REGIONAL REPORTS...


CITY           SKY/WX    TMP DP  RH WIND       PRES   REMARKS
Chicago O`Hare CLOUDY    65  48  54 S12       29.97F
Kankakee       CLOUDY    63  50  63 S12       30.02F
Moline         LGT RAIN  67  58  72 SW8       29.90R
Mount Sterling CLOUDY    64  59  85 S9        29.95R
Mount Vernon   CLOUDY    63  56  78 S3        30.06S
Pittsfield     CLOUDY    68  62  80 S10       29.98R
Quincy         CLOUDY    69  62  78 S16G22    29.94R
Rockford       CLOUDY    64  51  62 S15       29.94S
$$


CITY           SKY/WX    TMP DP  RH WIND       PRES   REMARKS
Burlington     CLOUDY    68  62  81 S14       29.88S
Cedar Rapids   RAIN      64  64 100 SE10      29.84S FOG
Des Moines     LGT RAIN  68  65  90 SW12      29.77F
Kirksville     CLOUDY    71  63  75 SW14G24   29.92R
Ottumwa        CLOUDY    73  64  73 SW14G25   29.84S
St Louis       CLOUDY    69  58  67 S12       30.02S
$$


CITY           SKY/WX    TMP DP  RH WIND       PRES   REMARKS
Terre Haute    CLOUDY    59  50  72 SE5       30.08F
Evansville     SUNNY     61  57  87 CALM      30.09F
Indianapolis   CLOUDY    60  51  72 SE10      30.10F
Lafayette      CLOUDY    59  52  77 CALM      30.07F
Madison        CLOUDY    63  50  62 S12       29.89R
Milwaukee      CLOUDY    63  50  62 S10       29.95F
$$






USA.gov is the U.S. government's official web portal to all federal, state and local government web resources and services.